User: anonymous   Login
Location: Unspecified
(0.0000°N, 0.0000°E)
Time: 23:19:20
(UTC+01:00)
Language:

Hamsat - Orbit

View from above orbital plane
View from above orbital plane
View from above satellite
View from above satellite

Ground track
Ground track

The orbit data is extracted from the following two-line orbital elements,

1 28650U 05017B   15024.89735887  .00001493  00000-0  17304-3 0  9648
2 28650 097.5679 023.9913 0025665 143.3281 216.9698 14.86645642526155
Epoch (UTC): 24 January 2015 21:32:11
Eccentricity: 0.0025665
inclination: 97.5679°
perigee height: 590 km
apogee height: 626 km
right ascension of ascending node: 23.9913°
argument of perigee: 143.3281°
revolutions per day: 14.86645642
mean anomaly at epoch: 216.9698°
orbit number at epoch: 52615

The dashed part of the orbit path shows where the satellite is in the earth's shadow,  

DLR